FW0532 Weather Reports


time (UTC)temp
C
wind
direction
speed
KPH
gust
KPH
rain 1hr
cm
rain 24hr
cm
rain mn
cm
humidity
%
barometer
mb
20260903011337 27 203 1.6 6.4 0.00 0.00 0.00 80 1014.4
20260903010837 27 229 3.2 6.4 0.00 0.00 0.00 79 1014.4
20260903010337 27 216 1.6 4.8 0.00 0.00 0.00 79 1014.5
20260903005837 27 216 1.6 8.0 0.00 0.00 0.00 78 1014.3
20260903005336 28 202 1.6 8.0 0.00 0.00 0.00 77 1014.2
20260903004336 28 213 3.2 8.0 0.00 0.00 0.00 77 1014.2
20260903003836 28 200 6.4 8.0 0.00 0.00 0.00 77 1014.2
20260903003335 28 213 6.4 8.0 0.00 0.00 0.00 78 1014.2
20260903001835 28 213 1.6 6.4 0.00 0.00 0.00 77 1014.2
20260903001335 28 202 3.2 4.8 0.00 0.00 0.00 77 1014.2
20260903000835 28 220 3.2 6.4 0.00 0.00 0.00 76 1014.2
20260903000335 28 209 1.6 8.0 0.00 0.00 0.00 76 1014.2
20260902235834 29 219 4.8 8.0 0.00 0.00 0.00 75 1013.9
20260902235334 29 211 1.6 6.4 0.00 0.00 0.00 75 1013.9
20260902234334 30 213 1.6 6.4 0.00 0.00 0.00 73 1013.9
20260902233334 30 211 1.6 9.7 0.00 0.00 0.00 72 1014.0
20260902232334 30 200 3.2 11.3 0.00 0.00 0.00 71 1014.1
20260902231834 30 196 3.2 11.3 0.00 0.00 0.00 70 1013.9
20260902230333 31 200 3.2 12.9 0.00 0.00 0.00 69 1013.9
20260902225833 31 198 3.2 16.1 0.00 0.00 0.00 69 1014.0
20260902224833 31 197 6.4 17.7 0.00 0.00 0.00 68 1013.9
20260902224332 31 205 4.8 17.7 0.00 0.00 0.00 67 1013.9
20260902223332 32 190 3.2 17.7 0.00 0.00 0.00 67 1013.8
20260902222331 32 196 16.1 17.7 0.00 0.00 0.00 66 1013.9
20260902221831 32 250 4.8 17.7 0.00 0.00 0.00 65 1014.0
20260902221331 32 167 6.4 17.7 0.00 0.00 0.00 64 1014.2
20260902220831 32 196 4.8 17.7 0.00 0.00 0.00 64 1014.3
20260902215831 32 186 6.4 14.5 0.00 0.00 0.00 65 1014.1
20260902215331 32 277 4.8 17.7 0.00 0.00 0.00 64 1014.0
20260902214830 32 209 9.7 20.9 0.00 0.00 0.00 63 1014.0
20260902214330 32 192 11.3 20.9 0.00 0.00 0.00 63 1014.1
20260902213830 32 219 9.7 19.3 0.00 0.00 0.00 63 1014.0
20260902213330 32 200 4.8 20.9 0.00 0.00 0.00 64 1014.1
20260902212830 32 182 6.4 24.1 0.00 0.00 0.00 64 1014.2
20260902212330 32 281 17.7 24.1 0.00 0.00 0.00 62 1014.0
20260902211830 32 232 11.3 19.3 0.00 0.00 0.00 62 1014.1
20260902210829 33 218 4.8 20.9 0.00 0.00 0.00 61 1014.3
20260902205829 32 206 11.3 22.5 0.00 0.00 0.00 62 1014.3
20260902205329 33 174 11.3 20.9 0.00 0.00 0.00 61 1014.4
20260902204829 33 238 6.4 19.3 0.00 0.00 0.00 63 1014.5
20260902204329 33 173 4.8 19.3 0.00 0.00 0.00 62 1014.5
20260902203328 33 200 3.2 19.3 0.00 0.00 0.00 61 1014.7
20260902202828 33 195 14.5 22.5 0.00 0.00 0.00 62 1014.8
20260902201828 33 184 6.4 20.9 0.00 0.00 0.00 60 1015.0
20260902201328 33 173 6.4 22.5 0.00 0.00 0.00 62 1015.0
20260902200828 33 218 4.8 22.5 0.00 0.00 0.00 62 1015.0
20260902195827 33 200 16.1 17.7 0.00 0.00 0.00 62 1015.1
20260902195327 33 213 6.4 17.7 0.00 0.00 0.00 60 1015.2
20260902194827 33 170 6.4 17.7 0.00 0.00 0.00 60 1015.2
20260902194326 33 171 6.4 17.7 0.00 0.00 0.00 59 1015.3
20260902193326 33 186 6.4 14.5 0.00 0.00 0.00 61 1015.5
20260902192826 33 196 8.0 20.9 0.00 0.00 0.00 60 1015.4
20260902192326 33 165 3.2 20.9 0.00 0.00 0.00 58 1015.5
20260902191326 33 173 9.7 11.3 0.00 0.00 0.00 61 1015.6
20260902190325 33 48 4.8 19.3 0.00 0.00 0.00 59 1015.6
20260902185325 33 200 8.0 25.7 0.00 0.00 0.00 60 1015.7
20260902184825 33 216 14.5 17.7 0.00 0.00 0.00 60 1015.8
20260902184325 33 188 8.0 20.9 0.00 0.00 0.00 64 1015.8
20260902183825 33 249 6.4 20.9 0.00 0.00 0.00 61 1016.0
20260902183325 32 171 11.3 17.7 0.00 0.00 0.00 61 1016.0
20260902182824 33 194 8.0 17.7 0.00 0.00 0.00 59 1016.1
20260902180824 33 157 3.2 11.3 0.00 0.00 0.00 60 1016.1
20260902180324 33 193 3.2 16.1 0.00 0.00 0.00 60 1016.2
20260902175823 33 317 3.2 16.1 0.00 0.00 0.00 58 1016.3
20260902175323 33 202 9.7 12.9 0.00 0.00 0.00 61 1016.3
20260902174823 33 250 8.0 14.5 0.00 0.00 0.00 62 1016.4
20260902174323 32 186 6.4 20.9 0.00 0.00 0.00 62 1016.3
20260902173823 32 224 4.8 20.9 0.00 0.00 0.00 61 1016.3
20260902173323 33 192 17.7 17.7 0.00 0.00 0.00 60 1016.5
20260902172823 32 213 1.6 20.9 0.00 0.00 0.00 63 1016.4
20260902172322 32 191 3.2 20.9 0.00 0.00 0.00 63 1016.4
20260902171823 32 188 4.8 17.7 0.00 0.00 0.00 61 1016.4
20260902171322 32 190 8.0 14.5 0.00 0.00 0.00 63 1016.6
20260902170322 32 154 4.8 17.7 0.00 0.00 0.00 65 1016.8
20260902165822 32 188 4.8 17.7 0.00 0.00 0.00 63 1016.9
20260902165321 32 219 4.8 14.5 0.00 0.00 0.00 64 1016.9
20260902164822 32 196 6.4 14.5 0.00 0.00 0.00 63 1016.9
20260902164321 32 205 3.2 14.5 0.00 0.00 0.00 62 1016.9
20260902163821 32 225 3.2 14.5 0.00 0.00 0.00 65 1016.9
20260902162321 32 226 9.7 17.7 0.00 0.00 0.00 66 1017.1
20260902161320 32 199 6.4 16.1 0.00 0.00 0.00 66 1017.0
20260902160850 32 207 6.4 16.1 0.00 0.00 0.00 64 1016.9
20260902160350 32 196 6.4 16.1 0.00 0.00 0.00 66 1016.9
20260902155850 32 198 4.8 9.7 0.00 0.00 0.00 65 1016.8
20260902155349 31 116 3.2 9.7 0.00 0.00 0.00 64 1017.0
20260902154849 32 174 6.4 8.0 0.00 0.00 0.00 66 1017.0
20260902154349 32 187 1.6 8.0 0.00 0.00 0.00 68 1017.0
20260902153349 31 275 0.0 8.0 0.00 0.00 0.00 69 1017.0
20260902152849 31 186 0.0 8.0 0.00 0.00 0.00 68 1016.9
20260902152349 31 216 3.2 11.3 0.00 0.00 0.00 69 1017.0
20260902151849 31 178 4.8 11.3 0.00 0.00 0.00 71 1017.0
20260902151348 31 191 0.0 9.7 0.00 0.00 0.00 69 1017.0
20260902150848 30 186 3.2 9.7 0.00 0.00 0.00 70 1016.8
20260902150348 31 316 3.2 6.4 0.00 0.00 0.00 72 1016.9
20260902145848 31 187 1.6 8.0 0.00 0.00 0.00 70 1017.0
20260902145348 31 204 3.2 8.0 0.00 0.00 0.00 71 1017.0
20260902144847 31 233 0.0 6.4 0.00 0.00 0.00 72 1017.1
20260902143847 30 304 6.4 6.4 0.00 0.00 0.00 71 1017.0
20260902143347 30 231 1.6 6.4 0.00 0.00 0.00 74 1017.1
20260902142847 30 222 0.0 9.7 0.00 0.00 0.00 74 1017.1
20260902142347 30 208 0.0 9.7 0.00 0.00 0.00 73 1016.9
20260902141847 30 107 1.6 3.2 0.00 0.00 0.00 75 1017.0
20260902140847 29 287 0.0 4.8 0.00 0.00 0.00 78 1017.1
20260902140346 28 162 1.6 4.8 0.00 0.00 0.00 76 1016.9
20260902135346 28 157 3.2 4.8 0.00 0.00 0.00 77 1016.9
20260902134846 28 99 0.0 3.2 0.00 0.00 0.00 79 1016.9
20260902133345 27 223 0.0 6.4 0.00 0.00 0.00 83 1016.8
20260902132845 27 221 1.6 6.4 0.00 0.00 0.00 82 1016.9
20260902132345 26 180 4.8 6.4 0.00 0.00 0.00 82 1016.9
20260902131845 26 176 4.8 6.4 0.00 0.00 0.00 84 1016.8
20260902131345 26 205 1.6 4.8 0.00 0.00 0.00 84 1016.8
20260902130845 25 293 0.0 4.8 0.00 0.00 0.00 85 1016.8
20260902130345 25 219 0.0 4.8 0.00 0.00 0.00 86 1016.9
20260902125845 25 194 1.6 4.8 0.00 0.00 0.00 86 1016.9
20260902125344 25 189 1.6 6.4 0.00 0.00 0.00 87 1016.9
20260902124844 24 190 1.6 8.0 0.00 0.00 0.00 88 1016.9
20260902124344 24 213 3.2 8.0 0.00 0.00 0.00 89 1016.9
20260902123843 23 210 3.2 4.8 0.00 0.00 0.00 89 1016.9
20260902123343 23 196 0.0 4.8 0.00 0.00 0.00 90 1016.9
20260902122843 23 199 3.2 4.8 0.00 0.00 0.00 91 1016.8
20260902121843 22 213 0.0 0.0 0.00 0.00 0.00 93 1016.6
20260902121343 22 213 0.0 0.0 0.00 0.00 0.00 94 1016.6
20260902120843 22 213 0.0 0.0 0.00 0.00 0.00 94 1016.6
20260902120342 21 213 0.0 0.0 0.00 0.00 0.00 94 1016.5
20260902115842 21 213 0.0 0.0 0.00 0.00 0.00 95 1016.5
20260902114842 21 213 0.0 0.0 0.00 0.00 0.00 96 1016.4
20260902114342 21 213 0.0 0.0 0.00 0.00 0.00 95 1016.3
20260902113842 20 213 0.0 0.0 0.00 0.00 0.00 95 1016.1
20260902113342 20 213 0.0 0.0 0.00 0.00 0.00 95 1016.1
20260902112841 21 213 0.0 0.0 0.00 0.00 0.00 95 1016.1
20260902112341 20 213 0.0 0.0 0.00 0.00 0.00 95 1015.9
20260902111841 20 213 0.0 0.0 0.00 0.00 0.00 95 1015.9
20260902111341 20 213 0.0 0.0 0.00 0.00 0.00 95 1015.8
20260902110841 20 213 0.0 0.0 0.00 0.00 0.00 95 1015.8
20260902110341 20 213 0.0 0.0 0.00 0.00 0.00 95 1015.7
20260902105340 21 213 0.0 0.0 0.00 0.00 0.00 95 1015.9
20260902104840 20 213 0.0 0.0 0.00 0.00 0.00 95 1015.7
20260902104340 21 213 0.0 0.0 0.00 0.00 0.00 95 1015.8
20260902103840 21 213 0.0 0.0 0.00 0.00 0.00 95 1015.9
20260902102840 21 213 0.0 0.0 0.00 0.00 0.00 95 1015.9
20260902102339 21 213 0.0 0.0 0.00 0.00 0.00 95 1015.8
20260902101839 21 213 0.0 0.0 0.00 0.00 0.00 95 1015.8
20260902100839 21 213 0.0 0.0 0.00 0.00 0.00 94 1015.9
20260902100339 21 213 0.0 0.0 0.00 0.00 0.00 94 1015.9
20260902095838 21 213 0.0 0.0 0.00 0.00 0.00 94 1015.9
20260902094838 21 213 0.0 0.0 0.00 0.00 0.00 95 1016.0
20260902093838 21 213 0.0 0.0 0.00 0.00 0.00 94 1015.9
20260902093338 21 213 0.0 0.0 0.00 0.00 0.00 94 1015.9
20260902092838 21 213 0.0 0.0 0.00 0.00 0.00 94 1015.9
20260902092338 21 213 0.0 0.0 0.00 0.00 0.00 94 1016.0
20260902091338 21 213 0.0 0.0 0.00 0.00 0.00 94 1016.0
20260902090837 21 213 0.0 0.0 0.00 0.00 0.00 94 1016.0
20260902090337 21 213 0.0 0.0 0.00 0.00 0.00 94 1016.0
20260902085837 21 213 0.0 0.0 0.00 0.00 0.00 94 1016.0
20260902085337 21 213 0.0 0.0 0.00 0.00 0.00 93 1015.9
20260902084837 21 213 0.0 0.0 0.00 0.00 0.00 93 1015.8
20260902083836 21 213 0.0 0.0 0.00 0.00 0.00 93 1015.7
20260902083336 21 213 0.0 0.0 0.00 0.00 0.00 93 1015.7
20260902082836 21 213 0.0 0.0 0.00 0.00 0.00 93 1015.5
20260902082336 21 213 0.0 0.0 0.00 0.00 0.00 93 1015.5
20260902081836 21 213 0.0 0.0 0.00 0.00 0.00 93 1015.5
20260902081336 21 213 0.0 0.0 0.00 0.00 0.00 92 1015.4
20260902080335 21 213 0.0 0.0 0.00 0.00 0.00 92 1015.3
20260902075835 22 213 0.0 0.0 0.00 0.00 0.00 92 1015.3
20260902075335 22 213 0.0 0.0 0.00 0.00 0.00 92 1015.5
20260902074835 22 213 0.0 0.0 0.00 0.00 0.00 91 1015.5
20260902073834 22 213 0.0 0.0 0.00 0.00 0.00 90 1015.5
20260902073335 22 213 0.0 0.0 0.00 0.00 0.00 90 1015.3
20260902072334 22 213 0.0 0.0 0.00 0.00 0.00 88 1015.3
20260902071834 23 213 0.0 0.0 0.00 0.00 0.00 87 1015.3
20260902071334 23 213 0.0 0.0 0.00 0.00 0.00 87 1015.5
20260902070834 23 213 0.0 0.0 0.00 0.00 0.00 88 1015.5
20260902065833 23 213 0.0 0.0 0.00 0.00 0.00 87 1015.5
20260902065333 23 213 0.0 3.2 0.00 0.00 0.00 86 1015.4
20260902064333 23 213 3.2 4.8 0.00 0.00 0.00 87 1015.7
20260902063833 23 213 0.0 0.0 0.00 0.00 0.00 88 1015.6
20260902063332 23 213 0.0 1.6 0.00 0.00 0.00 87 1015.6
20260902062832 23 213 0.0 3.2 0.00 0.00 0.00 87 1015.7
20260902062332 23 213 1.6 3.2 0.00 0.00 0.00 88 1015.7
20260902061832 23 211 0.0 1.6 0.00 0.00 0.00 87 1015.7
20260902061332 23 211 0.0 3.2 0.00 0.00 0.00 86 1015.7
20260902060832 24 217 0.0 3.2 0.00 0.00 0.00 86 1015.8
20260902060331 24 172 0.0 0.0 0.00 0.00 0.00 86 1015.8
20260902055832 24 196 0.0 3.2 0.00 0.00 0.00 86 1015.8
20260902055331 24 196 0.0 4.8 0.00 0.00 0.00 86 1015.8
20260902054331 24 238 0.0 0.0 0.00 0.00 0.00 85 1015.9
20260902053831 24 238 0.0 3.2 0.00 0.00 0.00 85 1015.8
20260902052830 25 217 1.6 4.8 0.00 0.00 0.00 84 1015.7
20260902052330 25 225 3.2 4.8 0.00 0.00 0.00 84 1015.7
20260902051330 25 207 0.0 3.2 0.00 0.00 0.00 84 1015.6
20260902050329 25 223 0.0 3.2 0.00 0.00 0.00 84 1015.7
20260902045830 25 229 0.0 4.8 0.00 0.00 0.00 84 1015.7
20260902044829 25 211 1.6 4.8 0.00 0.00 0.00 84 1015.5
20260902044329 25 211 1.6 4.8 0.00 0.00 0.00 84 1015.5
20260902043829 25 213 0.0 4.8 0.00 0.00 0.00 84 1015.5
20260902042829 25 203 3.2 4.8 0.00 0.00 0.00 86 1015.9
20260902042329 25 216 0.0 4.8 0.00 0.00 0.00 85 1015.9
20260902041828 25 216 3.2 4.8 0.00 0.00 0.00 85 1015.9
20260902041329 25 216 0.0 0.0 0.00 0.00 0.00 85 1015.9
20260902040328 25 216 0.0 0.0 0.00 0.00 0.00 85 1015.8
20260902035828 25 216 0.0 0.0 0.00 0.00 0.00 85 1015.6
20260902035328 25 216 0.0 0.0 0.00 0.00 0.00 85 1015.5
20260902034828 25 216 0.0 0.0 0.00 0.00 0.00 84 1015.5
20260902034327 25 216 0.0 0.0 0.00 0.00 0.00 84 1015.7
20260902033827 25 216 0.0 0.0 0.00 0.00 0.00 84 1015.7
20260902033327 25 216 0.0 4.8 0.00 0.00 0.00 84 1015.8
20260902032827 25 216 0.0 4.8 0.00 0.00 0.00 84 1015.8
20260902031827 26 217 4.8 6.4 0.00 0.00 0.00 83 1015.8
20260902031326 26 221 0.0 4.8 0.00 0.00 0.00 83 1015.6
20260902030827 26 238 3.2 4.8 0.00 0.00 0.00 83 1015.7
20260902025826 26 217 1.6 4.8 0.00 0.00 0.00 82 1015.8
20260902024825 26 198 1.6 8.0 0.00 0.00 0.00 81 1015.8
20260902023825 26 195 3.2 6.4 0.00 0.00 0.00 81 1015.8
20260902023325 26 223 1.6 6.4 0.00 0.00 0.00 81 1015.8
20260902022825 26 215 1.6 6.4 0.00 0.00 0.00 81 1015.8
20260902022325 26 217 3.2 6.4 0.00 0.00 0.00 82 1015.7
20260902021825 26 233 3.2 8.0 0.00 0.00 0.00 82 1015.8
20260902021324 26 257 3.2 8.0 0.00 0.00 0.00 82 1015.8
20260902020324 26 204 4.8 6.4 0.00 0.00 0.00 82 1015.7
20260902015824 26 211 1.6 4.8 0.00 0.00 0.00 82 1015.6
20260902015324 26 209 0.0 4.8 0.00 0.00 0.00 82 1015.5
20260902014824 26 215 0.0 4.8 0.00 0.00 0.00 82 1015.5
20260902014324 26 211 0.0 6.4 0.00 0.00 0.00 82 1015.3
20260902013823 26 207 3.2 6.4 0.00 0.00 0.00 82 1015.4
20260902013323 26 207 1.6 4.8 0.00 0.00 0.00 82 1015.4
20260902012323 27 217 1.6 4.8 0.00 0.00 0.00 81 1015.1
20260902011823 27 243 1.6 4.8 0.00 0.00 0.00 81 1015.1